SCP
0 0 0 0 0 0 0 0 0 0 0 0 0 0 0 0 -0 -0 0 0 0 0 0 0 0 0 0 0 0 0 0 0 0 0 0 0 0 0
0 0 0 0 0 0 0 0 0 0 0 0 0 0 0 0 0 -0 0 0 0 0 0 0 0 0 0 0 0 0 0 0 0 0 0 0 0 0
0 0 0 0 0 0 0 0 0 0 0 0 0 0 0 0 0 -0 0 0 0 0 0 0 0 0 0 0 0 0 0 0 0 0 0 0 0 0
0 0 0 0 0 0 0 0 0 0 0 0 0 0 0 0 0 0 0 0 0 0 0 0 0 0 0 0 0 0 0 0 0 0 0 0 0 0
0 0 0 0 0 0 0 0 0 0 0 0 0 0 0 0 0 0 0 0 0 0 0 0 0 0 0 0 0 0 0 0 0 0 0 0 0 0
0 0 0 0 0 0 0 0 0 0 0 0 0 0 0 0 0 0 0 0 0 0 0 0 0 0 0 0 0 0 0 0 0 0 0 0 0 0
0 0 0 0 0 0 0 0 0 0 0 0 0 0 0 0 0 0 0 0 0 0 0 0 0 0 0 0 0 0 0 0 0 0 0 0 0 0
0 0 0 0 0 0 0 0 0 0 0 0 0 0 0 0 0 0 0 0 0 0 0 0 0 0 0 0 0 0 0 0 0 0 0 0 0 0
0 0 0 0 0 0 0 0 0 0 0 0 0 0 0 0 0 0 0 0 0 0 0 0 0 0 0 0 0 0 0 0 0 0 0 0 0 0
0 0 0 0 0 0 0 0 0 0 0 0 0 0 0 0 0 0 0 0 0 0 0 0 0 0 0 0 0 0 0 0 0 0 0 0 0 0
0 0 0 0 0 0 0 0 0 0 0 0 0 0 0 0 0 0 0 0 0 0 0 0 0 0 0 0 0 0 0 0 0 0 0 0 0 0
0 0 0 0 0 0 0 0 0 0 0 0 0 0 0 0 0 0 0 0 0 0 0 0 0 0 0 0 0 0 0 0 0 0 0 0 0 0
0 0 0 0 0 0 0 0 0 0 0 0 0 0 0 0 0 0 0 0 0 0 0 0 0 0 0 0 0 0 0 0 0 0 0 0 0 0
0 0 0 0 0 0 0 0 0 0 0 0 0 0 0 0 0 0 0 0 0 0 0 0 0 0 0 0 0 0 0 0 0 0 0 0 0 0
0 0 0 0 0 0 0 0 0 0 0 0 0 0 0 0 0 0 0 0 0 0 0 0 0 0 0 0 0 0 0 0 0 0 0 0 0 0
0 0 0 0 0 0 0 0 0 0 0 0 0 0 0 0 0 0 0 0 0 0 0 0 0 0 0 0 0 0 0 0 0 0 0 0 0 0
0 0 0 0 0 0 0 0 0 0 0 0 0 0 0 0 0 0 0 0 0 0 0 0 0 0 0 0 0 0 0 0 0 0 0 0 0 0
0 0 0 0 0 0 0 0 0 0 0 0 0 0 0 0 0 0 0 0 0 0 0 0 0 0 0 0 0 0 0 0 0 0 0 0 0 0
0 0 0 0 0 0 0 0 0 0 0 0 0 0 0 0 0 0 0 0 0 0 0 0 0 0 0 0 0 0 0 0 0 0 0 0 0 0
0 0 0 0 0 0 0 0 0 0 0 0 0 0 0 0 0 0 0 0 0 0 0 0 0 0 0 0 0 0 0 0 0 0 0 0 0 0
0 0 0 0 0 0 0 0 0 0 0 0 0 0 0 0 0 0 0 0 0 0 0 0 0 0 0 0 0 0 0 0 0 0 0 0 0 0
0 0 0 0 0 0 0 0 0 0 0 0 0 0 0 0 0 0 0 0 0 0 0 0 0 0 0 0 0 0 0 0 0 0 0 0 0 0
0 0 0 0 0 0 0 0 0 0 0 0 0 0 0 0 0 0 0 0 0 0 0 0 0 0 0 0 0 0 0 0 0 0 0 0 0 0
Wind_Speed
2 1 1 1 1 1 1 1 2 2 3 2 1 1 1 1 2 2 2 5 5 4 4 4 4 5 5 5 5 5 5 5 6 6 7 7 8 8
1 1 1 1 1 1 1 1 1 2 3 2 2 1 2 2 3 2 2 6 6 5 4 4 4 4 4 4 5 5 5 5 6 6 7 8 8 8
2 1 2 1 1 1 1 1 1 2 3 2 1 1 1 1 2 2 2 2 3 5 5 4 4 3 3 4 5 5 5 5 6 7 7 8 9 9
2 2 2 1 1 1 1 2 2 2 2 3 2 1 2 1 1 2 2 2 2 4 5 5 5 4 4 4 4 5 5 5 6 7 7 8 8 9
2 2 2 2 2 2 2 2 2 2 2 2 2 1 1 0 1 2 2 2 3 3 4 5 5 5 5 4 5 5 5 5 6 6 7 8 8 8
3 3 3 3 3 3 2 2 2 2 2 2 2 1 1 0 0 1 2 2 3 2 3 4 5 6 6 6 6 6 5 5 5 6 7 7 7 8
3 3 3 4 4 4 3 2 2 1 1 1 1 1 1 0 0 0 1 2 2 1 2 2 2 2 3 5 6 6 5 6 6 6 6 7 7 8
3 3 3 4 4 5 4 3 3 2 2 2 2 2 2 1 1 1 0 1 2 2 2 2 1 1 2 2 5 6 6 6 6 7 7 7 7 7
2 2 3 3 3 2 3 3 3 3 3 3 3 3 2 2 1 1 1 1 2 2 2 2 2 2 2 3 7 6 6 6 6 7 7 8 8 8
3 3 3 3 3 2 2 1 1 1 2 2 3 3 2 2 2 2 1 0 1 1 1 1 2 2 3 3 6 6 7 7 7 8 8 8 8 9
3 2 3 3 4 2 1 1 1 1 1 2 2 2 1 1 1 1 1 0 1 1 1 0 1 3 2 2 3 6 7 8 9 9 9 9 9 9
2 2 3 3 3 2 2 2 2 2 1 0 0 1 0 0 0 1 1 1 0 1 1 0 1 2 3 2 2 3 4 6 8 9 10 9 9 5
2 2 2 4 3 2 2 2 2 1 1 1 0 0 1 0 0 0 0 1 1 1 1 0 1 1 1 3 3 2 2 3 4 5 7 9 9 6
2 2 2 2 2 2 1 0 0 1 1 1 1 0 0 0 0 1 0 0 1 2 2 1 1 1 2 3 3 3 3 3 3 3 3 6 7 8
1 2 2 2 2 1 0 1 1 1 1 1 1 0 0 0 0 1 1 1 1 1 1 2 2 2 2 2 3 3 4 3 2 2 3 3 3 3
1 1 2 2 1 1 1 1 1 1 1 1 1 0 0 0 1 1 1 1 2 2 2 1 1 2 2 3 3 4 3 3 3 3 3 3 3 2
0 0 0 0 0 1 1 1 1 1 1 1 1 0 0 1 1 1 1 1 1 2 2 2 2 1 2 3 3 3 2 2 3 3 3 4 4 3
1 1 1 1 0 1 1 1 1 1 0 0 1 1 0 0 1 1 1 1 1 1 2 2 2 2 2 1 2 2 1 2 2 3 2 3 4 4
1 1 0 0 0 1 1 0 0 0 0 0 0 0 0 0 0 1 1 1 1 1 2 2 1 1 2 3 3 1 1 2 2 3 2 2 4 5
1 0 0 0 0 1 1 0 0 0 0 0 0 0 0 0 0 1 1 1 1 2 2 2 1 1 1 2 2 3 4 3 2 3 3 3 4 6
1 1 0 0 0 0 0 0 1 0 0 0 0 0 0 0 0 1 1 2 2 1 2 2 2 3 1 1 1 2 3 4 4 3 3 3 3 3
1 1 1 1 0 0 0 0 0 1 1 1 0 0 0 0 1 1 1 1 1 1 2 2 2 1 1 1 1 2 3 4 5 6 5 4 2 2
1 1 1 0 0 0 0 0 1 1 1 1 1 1 1 0 1 1 1 1 1 1 2 2 2 1 1 1 1 2 3 4 3 4 3 5 6 7
Wind_Direction
266 271 288 289 282 271 226 203 205 256 274 271 287 310 323 335 355 0 331 335 341 340 339 339 338 336 343 340 340 336 333 330 324 318 313 309 308 311
253 262 279 282 282 284 263 262 221 211 252 260 255 288 318 336 354 2 326 345 343 340 342 345 341 336 337 342 340 336 332 331 326 315 310 311 311 311
272 261 269 273 282 292 290 268 250 222 240 272 270 290 306 321 347 346 323 331 331 339 343 344 342 340 345 344 338 331 331 327 325 325 321 315 312 310
259 263 271 272 283 284 274 262 253 240 218 253 271 277 275 284 335 334 331 341 328 334 350 353 356 354 347 339 333 331 326 321 321 322 321 318 317 315
244 243 253 248 259 265 260 259 258 255 229 224 251 254 267 308 12 347 344 343 339 346 360 5 3 1 359 352 344 343 335 327 321 320 318 315 315 317
254 246 246 237 245 248 246 247 260 257 238 232 241 249 260 257 97 8 351 353 344 351 359 358 3 8 4 356 354 350 342 335 329 327 326 325 323 320
270 263 258 259 261 253 243 229 228 241 238 233 240 230 222 200 227 292 322 344 338 352 350 348 349 359 355 351 351 349 348 344 339 334 329 328 328 326
268 274 272 262 262 267 267 253 231 231 233 228 231 228 226 215 204 237 257 343 323 342 357 337 355 348 334 335 341 343 350 352 351 347 342 336 334 332
267 277 285 280 274 252 264 270 257 249 236 231 224 223 214 210 202 221 254 288 281 298 342 324 348 339 333 341 344 345 352 357 358 356 350 345 340 336
265 257 265 276 271 251 250 259 266 258 257 245 231 231 222 207 202 205 206 320 326 321 346 309 328 329 330 330 342 355 1 358 355 353 349 345 342 340
285 271 270 260 271 260 223 236 269 289 295 276 267 250 242 247 204 121 116 82 327 319 347 306 320 324 323 326 342 355 354 351 350 349 347 344 341 340
292 285 286 285 273 256 200 202 236 258 261 3 28 12 62 146 68 158 183 193 266 297 320 358 321 340 330 320 328 333 339 341 346 346 342 339 337 336
289 294 289 302 289 269 230 204 227 217 143 144 141 105 75 76 88 75 163 190 200 250 249 271 296 308 287 303 312 315 321 323 330 331 337 337 334 333
279 280 287 317 331 309 261 205 151 95 118 124 121 117 101 53 14 12 11 339 235 244 241 229 238 254 283 295 295 309 323 311 314 318 319 330 334 337
277 298 326 344 341 333 38 92 113 124 131 125 136 205 33 169 41 38 31 40 17 333 290 256 227 245 258 269 281 297 312 313 315 316 319 323 318 325
321 309 337 1 0 5 73 103 107 141 146 156 159 107 49 39 49 50 17 20 14 351 345 324 259 234 263 269 268 280 289 293 315 320 320 319 315 311
265 173 145 98 49 74 72 71 76 89 95 102 125 96 45 28 358 360 12 14 352 323 334 345 349 318 267 262 265 265 277 289 298 315 327 324 315 310
97 140 162 164 164 100 87 71 60 60 73 108 128 119 81 17 353 354 6 20 347 318 311 310 329 340 341 330 246 246 276 291 303 316 318 318 313 312
74 104 141 170 159 125 137 145 90 11 48 92 109 111 102 23 337 337 358 357 329 311 302 301 311 329 334 329 323 292 275 299 307 311 308 300 298 302
38 330 236 182 137 149 155 153 127 78 80 90 81 117 164 226 317 313 321 316 309 310 315 320 317 312 293 295 295 305 303 292 296 300 305 301 289 294
358 340 336 6 60 103 139 162 155 169 165 152 163 204 206 205 299 300 305 311 315 307 312 315 307 324 324 311 302 304 308 313 307 296 301 310 312 314
349 339 342 344 4 133 150 176 169 185 192 183 183 193 207 244 272 279 275 286 303 306 311 311 313 328 334 305 303 307 314 321 328 327 312 288 288 295
319 318 318 323 318 224 193 202 208 217 216 205 195 192 200 249 272 269 273 295 313 317 325 327 336 351 349 325 308 309 315 323 328 337 333 329 312 295